SUPERVIEW NEO-1 02 (52322 NORAD) Tracking and Keplerian Element Data

This shows tracking and keplerian element data for the satellite.

Feedback or suggestion? Click here.




ElementValue
Catalog52322
NameSUPERVIEW NEO-1 02
Epoch Orbit727
Epoch Day166.900015
Epoch Year2022
RAAN242.428
Inclination97.4725
Eccentricity0.0021555
Argument of Perigee112.8231
Mean Anonmoly0.4767
Mean Motion15.23524584
Decay Rate6.518E-05
L11 52322U 22043C 22166.90001500 .00006518 00000+0 27420-3 0 9994
L22 52322 97.4725 242.4280 0021555 112.8231 0.4767 15.23524584 7277

Live tracking and technical data element details for SUPERVIEW NEO-1 02 (NORAD 52322). SUPERVIEW NEO-1 02 can be tracked NOW for your location showing map with azimuth and elevation plus other details from your city location.

Track the satellite on the map from your city or location and see movement details for azimuth, elevation, latitude, longitude, range, height, and movement on the map or in text.







IsCatalogInMostPopularTable: catalog: 52322, numindb: 1
Update: records affected: 1



GetName: 52322 SUPERVIEW NEO-1 02

Hit Count: updated at: Mon, 27 Jun 2022 05:49:49 GMT